NKS2 TJSJ-KMCO

Flight info

Callsign NKS2
Flight time N/A
Altitude 36000
Route ACONY3 SAPPO Y280 OCTAL MUNGI1
Aircraft A320/M-SDE3FGHIRWY/LB1

Departure

Time 2026-05-04 01:37
Airport Luis Munoz Marin International Airport (TJSJ)

Arrival

Time N/A
Airport Orlando International Airport (KMCO)
Time Latitude Longitude Altitude Speed Heading
2026-05-04 01:25 18.43827 -66.01058 19 ft 0 kts 340°
2026-05-04 01:34 18.43829 -66.01059 19 ft 1 kts 340°
2026-05-04 01:35 18.43839 -66.01062 19 ft 2 kts 342°
2026-05-04 01:35 18.43856 -66.01075 20 ft 4 kts 311°
2026-05-04 01:35 18.43846 -66.01122 19 ft 11 kts 256°
2026-05-04 01:35 18.43830 -66.01217 19 ft 14 kts 256°
2026-05-04 01:36 18.43811 -66.01321 20 ft 15 kts 284°
2026-05-04 01:36 18.43900 -66.01377 17 ft 17 kts
2026-05-04 01:36 18.43966 -66.01258 18 ft 36 kts 68°
2026-05-04 01:36 18.44153 -66.00796 24 ft 98 kts 66°
2026-05-04 01:37 18.44490 -65.99969 19 ft 144 kts 66°
2026-05-04 01:37 18.44912 -65.98893 198 ft 167 kts 69°
2026-05-04 01:37 18.45439 -65.97822 746 ft 170 kts 43°
2026-05-04 01:37 18.46528 -65.97397 1305 ft 174 kts 352°
2026-05-04 01:38 18.47549 -65.98034 1808 ft 177 kts 305°
2026-05-04 01:38 18.48217 -65.99188 2041 ft 196 kts 301°
2026-05-04 01:38 18.48995 -66.00432 2189 ft 217 kts 310°
2026-05-04 01:38 18.50059 -66.01674 2361 ft 240 kts 315°
2026-05-04 01:39 18.51301 -66.02983 2623 ft 264 kts 316°
2026-05-04 01:39 18.52651 -66.04378 3132 ft 277 kts 317°
2026-05-04 01:39 18.54038 -66.05821 3863 ft 283 kts 316°
2026-05-04 01:39 18.55438 -66.07298 4647 ft 285 kts 316°
2026-05-04 01:40 18.56843 -66.08793 5420 ft 288 kts 315°
2026-05-04 01:40 18.57772 -66.09790 5928 ft 289 kts 315°
2026-05-04 01:40 18.59670 -66.11829 6920 ft 293 kts 315°
2026-05-04 01:40 18.61106 -66.13379 7620 ft 297 kts 315°
2026-05-04 01:41 18.62537 -66.14930 8265 ft 300 kts 315°
2026-05-04 01:41 18.63997 -66.16517 8892 ft 303 kts 315°
2026-05-04 01:41 18.65482 -66.18133 9498 ft 307 kts 315°
2026-05-04 01:41 18.66973 -66.19755 10135 ft 309 kts 315°
2026-05-04 01:42 18.68516 -66.21431 10339 ft 328 kts 315°
2026-05-04 01:42 18.70159 -66.23213 10485 ft 346 kts 315°
2026-05-04 01:42 18.71856 -66.25054 10901 ft 353 kts 314°
2026-05-04 01:42 18.73557 -66.26899 11445 ft 356 kts 314°
2026-05-04 01:43 18.75287 -66.28776 12064 ft 357 kts 314°
2026-05-04 01:43 18.77022 -66.30659 12662 ft 358 kts 314°
2026-05-04 01:43 18.78766 -66.32548 13232 ft 360 kts 314°
2026-05-04 01:43 18.80522 -66.34453 13769 ft 363 kts 314°
2026-05-04 01:44 18.82287 -66.36372 14298 ft 366 kts 314°
2026-05-04 01:44 18.84051 -66.38292 14825 ft 368 kts 313°
2026-05-04 01:44 18.85838 -66.40235 15382 ft 369 kts 313°
2026-05-04 01:44 18.87637 -66.42189 15938 ft 370 kts 313°
2026-05-04 01:45 18.89414 -66.44119 16453 ft 372 kts 313°
2026-05-04 01:45 18.91220 -66.46082 16952 ft 374 kts 313°
2026-05-04 01:45 18.94290 -66.49385 17777 ft 377 kts 314°
2026-05-04 01:46 18.96804 -66.51953 18417 ft 380 kts 315°
2026-05-04 01:46 18.98730 -66.53881 18870 ft 383 kts 315°
2026-05-04 01:46 19.00658 -66.55806 19293 ft 386 kts 316°
2026-05-04 01:46 19.02614 -66.57767 19705 ft 389 kts 315°
2026-05-04 01:47 19.04584 -66.59753 20115 ft 393 kts 315°
2026-05-04 01:47 19.06565 -66.61758 20550 ft 396 kts 315°
2026-05-04 01:47 19.08480 -66.63875 20958 ft 398 kts 309°
2026-05-04 01:47 19.10245 -66.66148 21365 ft 401 kts 309°
2026-05-04 01:48 19.12026 -66.68439 21746 ft 405 kts 309°
2026-05-04 01:48 19.13821 -66.70746 22137 ft 408 kts 309°
2026-05-04 01:48 19.15612 -66.73048 22496 ft 411 kts 309°
2026-05-04 01:48 19.17440 -66.75399 22847 ft 414 kts 309°
2026-05-04 01:49 19.19276 -66.77760 23195 ft 417 kts 309°
2026-05-04 01:49 19.21124 -66.80132 23528 ft 420 kts 310°
2026-05-04 01:49 19.22987 -66.82523 23849 ft 422 kts 310°
2026-05-04 01:49 19.24865 -66.84935 24166 ft 425 kts 310°
2026-05-04 01:50 19.26749 -66.87362 24474 ft 427 kts 310°
2026-05-04 01:50 19.28618 -66.89771 24783 ft 430 kts 309°
2026-05-04 01:50 19.30520 -66.92225 25097 ft 432 kts 309°
2026-05-04 01:50 19.32430 -66.94687 25403 ft 434 kts 309°
2026-05-04 01:51 19.34354 -66.97166 25708 ft 436 kts 309°
2026-05-04 01:51 19.35637 -66.98820 25900 ft 437 kts 309°
2026-05-04 01:51 19.38223 -67.02162 26290 ft 440 kts 309°
2026-05-04 01:51 19.40170 -67.04683 26572 ft 442 kts 309°
2026-05-04 01:52 19.42122 -67.07206 26850 ft 444 kts 309°
2026-05-04 01:52 19.44083 -67.09738 27125 ft 445 kts 309°
2026-05-04 01:52 19.46050 -67.12280 27384 ft 447 kts 309°
2026-05-04 01:52 19.48003 -67.14804 27629 ft 449 kts 309°
2026-05-04 01:53 19.49987 -67.17367 27890 ft 451 kts 309°
2026-05-04 01:53 19.51980 -67.19943 28149 ft 452 kts 309°
2026-05-04 01:53 19.53979 -67.22530 28411 ft 454 kts 309°
2026-05-04 01:53 19.55983 -67.25126 28664 ft 456 kts 309°
2026-05-04 01:54 19.57993 -67.27740 28907 ft 458 kts 309°
2026-05-04 01:54 19.60007 -67.30358 29222 ft 458 kts 309°
2026-05-04 01:54 19.62020 -67.32972 29607 ft 457 kts 309°
2026-05-04 01:54 19.64011 -67.35558 29981 ft 456 kts 309°
2026-05-04 01:55 19.66018 -67.38162 30358 ft 455 kts 308°
2026-05-04 01:55 19.68015 -67.40756 30758 ft 453 kts 308°
2026-05-04 01:55 19.70006 -67.43342 31151 ft 451 kts 309°
2026-05-04 01:55 19.71989 -67.45918 31552 ft 449 kts 308°
2026-05-04 01:56 19.73294 -67.47616 31821 ft 448 kts 308°
2026-05-04 01:56 19.75260 -67.50175 32220 ft 446 kts 308°
2026-05-04 01:56 19.77219 -67.52725 32616 ft 444 kts 308°
2026-05-04 01:56 19.79169 -67.55264 33016 ft 442 kts 308°
2026-05-04 01:57 19.81108 -67.57788 33398 ft 440 kts 308°
2026-05-04 01:57 19.83042 -67.60303 33769 ft 438 kts 308°
2026-05-04 01:57 19.84964 -67.62802 34115 ft 436 kts 308°
2026-05-04 01:57 19.86880 -67.65296 34443 ft 434 kts 308°
2026-05-04 01:58 19.88782 -67.67778 34783 ft 432 kts 308°
2026-05-04 01:58 19.90653 -67.70227 35104 ft 430 kts 308°
2026-05-04 01:58 19.92533 -67.72686 35405 ft 428 kts 308°
2026-05-04 01:58 19.94411 -67.75140 35701 ft 426 kts 308°
2026-05-04 01:59 19.96273 -67.77578 35966 ft 425 kts 308°
2026-05-04 01:59 19.98135 -67.80020 36061 ft 426 kts 308°
2026-05-04 01:59 20.01906 -67.84955 36074 ft 435 kts 308°
2026-05-04 02:00 20.05747 -67.89975 36074 ft 445 kts 309°
2026-05-04 02:00 20.09690 -67.95135 36074 ft 453 kts 308°
2026-05-04 02:01 20.13697 -68.00394 36072 ft 458 kts 308°
2026-05-04 02:01 20.17722 -68.05684 36072 ft 459 kts 308°
2026-05-04 02:02 20.21741 -68.10966 36073 ft 459 kts 308°
2026-05-04 02:02 20.25762 -68.16257 36064 ft 460 kts 308°
2026-05-04 02:03 20.29771 -68.21523 36065 ft 460 kts 308°
2026-05-04 02:03 20.33799 -68.26825 36060 ft 460 kts 308°
2026-05-04 02:04 20.37824 -68.32141 36045 ft 460 kts 308°
2026-05-04 02:04 20.41846 -68.37450 36043 ft 459 kts 308°
2026-05-04 02:05 20.45530 -68.42970 36053 ft 459 kts 302°
2026-05-04 02:05 20.48920 -68.48743 36052 ft 459 kts 302°
2026-05-04 02:06 20.52313 -68.54516 36047 ft 459 kts 302°
2026-05-04 02:06 20.55711 -68.60294 36046 ft 459 kts 302°
2026-05-04 02:07 20.59086 -68.66027 36054 ft 458 kts 302°
2026-05-04 02:07 20.62471 -68.71793 36044 ft 458 kts 302°
2026-05-04 02:08 20.65863 -68.77568 36041 ft 458 kts 302°
2026-05-04 02:08 20.69236 -68.83343 36045 ft 457 kts 301°
2026-05-04 02:09 20.72594 -68.89105 36041 ft 457 kts 301°
2026-05-04 02:09 20.75969 -68.94879 36038 ft 457 kts 301°
2026-05-04 02:10 20.79314 -69.00605 36039 ft 458 kts 301°
2026-05-04 02:10 20.82692 -69.06392 36046 ft 457 kts 301°
2026-05-04 02:11 20.86040 -69.12141 36045 ft 457 kts 301°
2026-05-04 02:11 20.89395 -69.17920 36044 ft 457 kts 301°
2026-05-04 02:12 20.92757 -69.23707 36043 ft 457 kts 301°
2026-05-04 02:12 20.96121 -69.29495 36050 ft 457 kts 301°
2026-05-04 02:13 20.99463 -69.35240 36054 ft 457 kts 301°
2026-05-04 02:13 21.02814 -69.41028 36057 ft 457 kts 301°
2026-05-04 02:14 21.06144 -69.46787 36058 ft 456 kts 301°
2026-05-04 02:14 21.09485 -69.52563 36031 ft 456 kts 301°
2026-05-04 02:15 21.12821 -69.58341 36032 ft 455 kts 301°
2026-05-04 02:15 21.16158 -69.64133 36032 ft 456 kts 301°
2026-05-04 02:16 21.19477 -69.69880 36029 ft 456 kts 301°
2026-05-04 02:16 21.22804 -69.75655 36031 ft 455 kts 301°
2026-05-04 02:17 21.26129 -69.81433 36034 ft 455 kts 301°
2026-05-04 02:17 21.29447 -69.87215 36036 ft 455 kts 301°
2026-05-04 02:18 21.32763 -69.92998 36037 ft 455 kts 301°
2026-05-04 02:18 21.36053 -69.98739 36035 ft 454 kts 301°
2026-05-04 02:19 21.39371 -70.04528 36036 ft 454 kts 301°
2026-05-04 02:19 21.42655 -70.10265 36031 ft 453 kts 300°
2026-05-04 02:20 21.45956 -70.16043 36030 ft 453 kts 300°
2026-05-04 02:20 21.49248 -70.21816 36028 ft 453 kts 300°
2026-05-04 02:21 21.52550 -70.27597 36025 ft 453 kts 300°
2026-05-04 02:21 21.55842 -70.33377 36024 ft 453 kts 300°
2026-05-04 02:22 21.59131 -70.39160 36024 ft 453 kts 300°
2026-05-04 02:22 21.62425 -70.44942 36026 ft 453 kts 300°
2026-05-04 02:23 21.65697 -70.50698 36023 ft 453 kts 300°
2026-05-04 02:23 21.68976 -70.56487 36024 ft 453 kts 300°
2026-05-04 02:24 21.72261 -70.62288 36023 ft 453 kts 300°
2026-05-04 02:24 21.75528 -70.68050 36026 ft 453 kts 300°
2026-05-04 02:25 21.78811 -70.73855 36028 ft 453 kts 300°
2026-05-04 02:25 21.82069 -70.79623 36029 ft 453 kts 300°
2026-05-04 02:26 21.85337 -70.85407 36030 ft 452 kts 300°
2026-05-04 02:26 21.88600 -70.91202 36027 ft 452 kts 300°
2026-05-04 02:27 21.91869 -70.97002 36027 ft 452 kts 300°
2026-05-04 02:27 21.95140 -71.02808 36028 ft 452 kts 300°
2026-05-04 02:28 21.98376 -71.08570 36028 ft 452 kts 300°
2026-05-04 02:28 22.01630 -71.14380 36031 ft 452 kts 299°
2026-05-04 02:29 22.04877 -71.20170 36030 ft 451 kts 299°
2026-05-04 02:29 22.08119 -71.25951 36029 ft 450 kts 299°
2026-05-04 02:30 22.11356 -71.31749 36030 ft 450 kts 299°
2026-05-04 02:30 22.14587 -71.37534 36033 ft 450 kts 299°
2026-05-04 02:31 22.17821 -71.43312 36037 ft 448 kts 299°
2026-05-04 02:31 22.21034 -71.49044 35992 ft 448 kts 299°
2026-05-04 02:32 22.24243 -71.54820 36007 ft 448 kts 299°
2026-05-04 02:32 22.27430 -71.60583 36020 ft 449 kts 299°
2026-05-04 02:33 22.30651 -71.66381 36027 ft 449 kts 299°
2026-05-04 02:33 22.33858 -71.72139 36034 ft 449 kts 299°
2026-05-04 02:34 22.37070 -71.77927 36036 ft 449 kts 299°
2026-05-04 02:34 22.40275 -71.83716 36049 ft 449 kts 299°
2026-05-04 02:35 22.43483 -71.89512 36052 ft 448 kts 299°
2026-05-04 02:35 22.46664 -71.95264 36047 ft 448 kts 299°
2026-05-04 02:36 22.49863 -72.01057 36049 ft 448 kts 299°
2026-05-04 02:36 22.53061 -72.06848 36054 ft 448 kts 299°
2026-05-04 02:37 22.56247 -72.12636 36053 ft 447 kts 299°
2026-05-04 02:37 22.59426 -72.18420 36043 ft 447 kts 298°
2026-05-04 02:38 22.62588 -72.24171 36050 ft 447 kts 298°
2026-05-04 02:38 22.65763 -72.29955 36045 ft 447 kts 298°
2026-05-04 02:39 22.68939 -72.35739 36050 ft 446 kts 298°
2026-05-04 02:39 22.72109 -72.41525 36060 ft 446 kts 298°
2026-05-04 02:40 22.75252 -72.47270 36054 ft 446 kts 298°
2026-05-04 02:40 22.78410 -72.53054 36064 ft 445 kts 298°
2026-05-04 02:41 22.81575 -72.58838 36062 ft 445 kts 298°
2026-05-04 02:41 22.84729 -72.64604 36063 ft 445 kts 298°
2026-05-04 02:42 22.87873 -72.70395 36060 ft 445 kts 298°
2026-05-04 02:42 22.90990 -72.76141 36056 ft 445 kts 298°
2026-05-04 02:43 22.94139 -72.81927 36058 ft 444 kts 298°
2026-05-04 02:43 22.97278 -72.87705 36058 ft 444 kts 298°
2026-05-04 02:44 22.99884 -72.92512 36059 ft 444 kts 297°
2026-05-04 02:44 23.03529 -72.99237 36064 ft 444 kts 298°
2026-05-04 02:45 23.06150 -73.04072 36058 ft 443 kts 297°
2026-05-04 02:45 23.09247 -73.09807 36064 ft 443 kts 297°
2026-05-04 02:46 23.12361 -73.15587 36064 ft 442 kts 297°
2026-05-04 02:46 23.15473 -73.21354 36065 ft 442 kts 297°
2026-05-04 02:47 23.18589 -73.27119 36075 ft 442 kts 297°
2026-05-04 02:47 23.21673 -73.32854 36070 ft 442 kts 297°
2026-05-04 02:48 23.24772 -73.38630 36067 ft 442 kts 297°
2026-05-04 02:48 23.27864 -73.44391 36067 ft 441 kts 297°
2026-05-04 02:49 23.30955 -73.50146 36069 ft 440 kts 297°
2026-05-04 02:49 23.34030 -73.55890 36066 ft 439 kts 297°
2026-05-04 02:50 23.35543 -73.58715 36033 ft 424 kts 297°
2026-05-04 02:50 23.37013 -73.61455 36045 ft 415 kts 297°
2026-05-04 02:50 23.39887 -73.66831 36046 ft 417 kts 296°
2026-05-04 02:51 23.42842 -73.72382 36046 ft 428 kts 296°
2026-05-04 02:51 23.45860 -73.78055 36043 ft 435 kts 296°
2026-05-04 02:52 23.48911 -73.83766 36049 ft 437 kts 296°
2026-05-04 02:52 23.51963 -73.89495 36046 ft 436 kts 296°
2026-05-04 02:53 23.54978 -73.95175 36044 ft 436 kts 296°
2026-05-04 02:53 23.58023 -74.00922 36039 ft 436 kts 296°
2026-05-04 02:54 23.61056 -74.06653 36055 ft 436 kts 296°
2026-05-04 02:54 23.64073 -74.12350 36063 ft 436 kts 296°
2026-05-04 02:55 23.68638 -74.20969 36063 ft 436 kts 296°
2026-05-04 02:56 23.71616 -74.26603 36065 ft 436 kts 296°
2026-05-04 02:56 23.74640 -74.32343 36068 ft 436 kts 296°
2026-05-04 02:57 23.77648 -74.38057 36063 ft 436 kts 296°
2026-05-04 02:57 23.80682 -74.43809 36064 ft 436 kts 296°
2026-05-04 02:58 23.83694 -74.49542 36072 ft 437 kts 296°
2026-05-04 02:58 23.86719 -74.55308 36065 ft 437 kts 296°
2026-05-04 02:59 23.89746 -74.61084 36069 ft 437 kts 296°
2026-05-04 02:59 23.92749 -74.66818 36069 ft 437 kts 296°
2026-05-04 03:00 23.95768 -74.72592 36072 ft 437 kts 296°
2026-05-04 03:00 23.98785 -74.78368 36069 ft 437 kts 296°
2026-05-04 03:01 24.01791 -74.84148 36068 ft 437 kts 295°
2026-05-04 03:01 24.04810 -74.89919 36071 ft 436 kts 295°
2026-05-04 03:02 24.07794 -74.95653 36072 ft 436 kts 295°
2026-05-04 03:02 24.10793 -75.01426 36071 ft 435 kts 295°
2026-05-04 03:03 24.13783 -75.07190 36071 ft 435 kts 295°
2026-05-04 03:03 24.16760 -75.12933 36067 ft 435 kts 295°
2026-05-04 03:04 24.19756 -75.18708 36070 ft 435 kts 295°
2026-05-04 03:04 24.22748 -75.24483 36066 ft 435 kts 295°
2026-05-04 03:05 24.25732 -75.30258 36067 ft 434 kts 295°
2026-05-04 03:05 24.28690 -75.35990 36070 ft 434 kts 295°
2026-05-04 03:06 24.31666 -75.41760 36067 ft 434 kts 295°
2026-05-04 03:06 24.34640 -75.47534 36067 ft 434 kts 295°
2026-05-04 03:07 24.37599 -75.53289 36069 ft 434 kts 295°
2026-05-04 03:07 24.40542 -75.59019 36071 ft 434 kts 295°
2026-05-04 03:08 24.43512 -75.64801 36067 ft 434 kts 295°
2026-05-04 03:08 24.46471 -75.70575 36069 ft 433 kts 294°
2026-05-04 03:09 24.49416 -75.76349 36070 ft 433 kts 294°
2026-05-04 03:09 24.52361 -75.82118 36069 ft 433 kts 295°
2026-05-04 03:10 24.55299 -75.87860 36074 ft 433 kts 295°
2026-05-04 03:10 24.58250 -75.93645 36073 ft 434 kts 294°
2026-05-04 03:11 24.61194 -75.99433 36080 ft 433 kts 294°
2026-05-04 03:11 24.64121 -76.05184 36084 ft 433 kts 294°
2026-05-04 03:12 24.67066 -76.10971 36085 ft 433 kts 294°
2026-05-04 03:12 24.70005 -76.16758 36085 ft 433 kts 294°
2026-05-04 03:13 24.72931 -76.22517 36082 ft 433 kts 294°
2026-05-04 03:13 24.75861 -76.28307 36080 ft 432 kts 294°
2026-05-04 03:14 24.78785 -76.34101 36077 ft 432 kts 294°
2026-05-04 03:14 24.81684 -76.39844 36077 ft 432 kts 294°
2026-05-04 03:15 24.84593 -76.45626 36076 ft 431 kts 294°
2026-05-04 03:15 24.87507 -76.51409 36075 ft 431 kts 294°
2026-05-04 03:16 24.90422 -76.57191 36082 ft 431 kts 294°
2026-05-04 03:16 24.93314 -76.62937 36085 ft 431 kts 293°
2026-05-04 03:17 24.96221 -76.68723 36087 ft 431 kts 293°
2026-05-04 03:17 24.99120 -76.74513 36089 ft 430 kts 293°
2026-05-04 03:18 25.02008 -76.80291 36087 ft 430 kts 293°
2026-05-04 03:18 25.04887 -76.86037 36086 ft 430 kts 293°
2026-05-04 03:19 25.07782 -76.91823 36087 ft 430 kts 293°
2026-05-04 03:19 25.10670 -76.97617 36086 ft 430 kts 292°
2026-05-04 03:20 25.13535 -77.03377 36087 ft 430 kts 292°
2026-05-04 03:20 25.16421 -77.09173 36084 ft 430 kts 292°
2026-05-04 03:21 25.19295 -77.14965 36087 ft 430 kts 292°
2026-05-04 03:21 25.22153 -77.20733 36084 ft 430 kts 292°
2026-05-04 03:22 25.25027 -77.26521 36086 ft 429 kts 292°
2026-05-04 03:22 25.27888 -77.32302 36091 ft 429 kts 292°
2026-05-04 03:23 25.30306 -77.38264 36099 ft 422 kts 284°
2026-05-04 03:23 25.32270 -77.44317 36099 ft 421 kts 284°
2026-05-04 03:24 25.34252 -77.50421 36101 ft 421 kts 284°
2026-05-04 03:24 25.36240 -77.56516 36096 ft 421 kts 284°
2026-05-04 03:25 25.38219 -77.62608 36097 ft 421 kts 284°
2026-05-04 03:25 25.40188 -77.68706 36098 ft 420 kts 284°
2026-05-04 03:26 25.42138 -77.74749 36098 ft 420 kts 284°
2026-05-04 03:26 25.43989 -77.80860 36092 ft 417 kts 281°
2026-05-04 03:27 25.45517 -77.87039 36098 ft 415 kts 279°
2026-05-04 03:27 25.46978 -77.93234 36102 ft 415 kts 279°
2026-05-04 03:28 25.48479 -77.99364 36105 ft 416 kts 280°
2026-05-04 03:28 25.50024 -78.05549 36107 ft 416 kts 280°
2026-05-04 03:29 25.51565 -78.11685 36107 ft 416 kts 280°
2026-05-04 03:29 25.53102 -78.17812 36104 ft 415 kts 279°
2026-05-04 03:30 25.54640 -78.23983 36099 ft 415 kts 279°
2026-05-04 03:30 25.56164 -78.30158 36097 ft 415 kts 279°
2026-05-04 03:31 25.57678 -78.36298 36093 ft 415 kts 279°
2026-05-04 03:31 25.58954 -78.41473 36097 ft 416 kts 279°
2026-05-04 03:32 25.60730 -78.48666 36092 ft 416 kts 280°
2026-05-04 03:32 25.62256 -78.54857 36085 ft 416 kts 279°
2026-05-04 03:33 25.63758 -78.61006 36080 ft 416 kts 279°
2026-05-04 03:33 25.65278 -78.67216 36080 ft 417 kts 280°
2026-05-04 03:34 25.66804 -78.73423 36080 ft 417 kts 280°
2026-05-04 03:34 25.68312 -78.79597 36079 ft 417 kts 279°
2026-05-04 03:35 25.69824 -78.85824 36077 ft 418 kts 279°
2026-05-04 03:35 25.71337 -78.92061 36074 ft 418 kts 279°
2026-05-04 03:36 25.72835 -78.98215 36055 ft 401 kts 279°
2026-05-04 03:36 25.74258 -79.04078 36063 ft 397 kts 279°
2026-05-04 03:37 25.75446 -79.09027 36069 ft 407 kts 279°
2026-05-04 03:37 25.76919 -79.15186 36062 ft 417 kts 279°
2026-05-04 03:38 25.78421 -79.21438 36061 ft 421 kts 279°
2026-05-04 03:38 25.79941 -79.27728 36061 ft 421 kts 279°
2026-05-04 03:39 25.81446 -79.33981 36070 ft 422 kts 279°
2026-05-04 03:39 25.82955 -79.40290 36076 ft 422 kts 279°
2026-05-04 03:40 25.84463 -79.46609 36080 ft 423 kts 279°
2026-05-04 03:40 25.85955 -79.52889 36086 ft 423 kts 279°
2026-05-04 03:41 25.87453 -79.59211 36087 ft 423 kts 279°
2026-05-04 03:41 25.88954 -79.65538 36088 ft 423 kts 279°